Regional Weather Roundup
Issued by NWS

Home | Current Version | Previous Version | Graphics & Text | Print | Product List | Glossary Off
Versions: 1 2 3 4 5 6 7 8 9 10 11 12 13 14 15 16 17 18 19 20 21 22 23 24 25 26 27 28 29 30 31 32 33 34 35 36 37 38 39 40 41 42 43 44 45 46 47 48 49 50

000
ASUS43 KMKX 171621
RWRWI

WISCONSIN REGIONAL WEATHER ROUNDUP
NATIONAL WEATHER SERVICE MILWAUKEE/SULLIVAN WI
1000 AM CST SUN DEC 17 2017

NOTE: "FAIR" INDICATES FEW OR NO CLOUDS BELOW 12,000 FEET WITH NO
SIGNIFICANT WEATHER AND/OR OBSTRUCTIONS TO VISIBILITY.

WIZ001-002-006>008-014>016-023>028-171700-
NORTHWEST WISCONSIN

CITY           SKY/WX    TMP DP  RH WIND       PRES   REMARKS
SUPERIOR ARPT  CLOUDY    23  18  81 CALM      30.12S
ASHLAND        CLOUDY    23  20  88 CALM      30.11F
HAYWARD        CLOUDY    25  22  88 S6        30.07F FOG     WCI  18
SIREN          CLOUDY    22  21  96 CALM      30.10R FOG
CUMBERLAND     FOG       25  23  93 SE8       30.08R VSB 3/4 WCI  16
RICE LAKE      FOG       25  25  98 CALM      30.10S VSB 1/2
CHETEK         CLOUDY    26  25  98 SE5       30.10S WCI  20
LADYSMITH      CLOUDY    26  24  92 SE7       30.11R WCI  19
EAU CLAIRE     CLOUDY    26  25  96 SE6       30.08F FOG     WCI  19
MENOMONIE      FOG       27  27  99 E3        30.09F VSB 1
NEW RICHMOND   CLOUDY    25  24  95 SE3       30.09F FOG
OSCEOLA        CLOUDY    25  25 100 CALM      30.12S FOG
$$

WIZ003>005-009-010-017-018-171700-
NORTH CENTRAL WISCONSIN

CITY           SKY/WX    TMP DP  RH WIND       PRES   REMARKS
MANITOWISH WTR CLOUDY    21  21 100 S6        30.06S FOG     WCI  14
ARBOR VITAE    CLOUDY    23  21  93 SE7       30.06S WCI  15
WOODRUFF       CLOUDY    23  21  93 SE7       30.06S WCI  15
RHINELANDER    CLOUDY    23  22  96 SE6       30.07F WCI  16
EAGLE RIVER    CLOUDY    21  21 100 S3        30.07F FOG
LAND O LAKES   CLOUDY    22  21  96 S5        30.08F FOG     WCI  15
PHILLIPS       CLOUDY    24  23  99 S5        30.07R WCI  18
TOMAHAWK       CLOUDY    23  22  94 CALM      30.09R FOG
MEDFORD        CLOUDY    24  23  96 SE5       30.07S FOG     WCI  18
MERRILL        CLOUDY    24  24  99 CALM      30.11R FOG
$$

WIZ029-030-035-036-043>047-171700-
CENTRAL WISCONSIN

CITY           SKY/WX    TMP DP  RH WIND       PRES   REMARKS
WAUSAU         CLOUDY    23  23 100 SE6       30.09R FOG     WCI  16
MOSINEE        CLOUDY    25  25 100 E6        30.11S FOG     WCI  18
MARSHFIELD     CLOUDY    24  24 100 E6        30.08S FOG     WCI  17
STEVENS POINT  CLOUDY    23  23 100 E5        30.11S FOG     WCI  17
WAUPACA        CLOUDY    28  24  85 NE6       30.13S WCI  22
WAUTOMA        CLOUDY    27  25  93 NE6       30.11F FOG     WCI  20
WISC RAPIDS    CLOUDY    26  23  88 E5        30.12S FOG     WCI  20
CAMP DOUGLAS   CLOUDY    28  25  86 E8        30.10S WCI  20
$$

WIZ011>013-019>022-031-037>040-048>050-171700-
NORTHEAST WISCONSIN

CITY           SKY/WX    TMP DP  RH WIND       PRES   REMARKS
ANTIGO         CLOUDY    22  22 100 SE8       30.09R FOG     WCI  13
SHAWANO        CLOUDY    25  21  86 CALM      30.14F
OCONTO         CLOUDY    26  22  85 CALM      30.14F
STURGEON BAY   CLOUDY    31  27  85 E9        30.15S WCI  23
GREEN BAY      CLOUDY    27  22  81 N8        30.13F WCI  19
MANITOWOC      CLOUDY    30  28  92 E14       30.13F WCI  19
APPLETON       CLOUDY   N/A N/A N/A NE5       30.10F
CLINTONVILLE   NOT AVBL
OSHKOSH        CLOUDY    31  28  89 E7        30.10F FOG     WCI  24
$$

WIZ032>034-041-042-053>061-171700-
SOUTHWEST WISCONSIN

CITY           SKY/WX    TMP DP  RH WIND       PRES   REMARKS
LA CROSSE      CLOUDY    31  27  85 E5        30.08F WCI  26
SPARTA         CLOUDY    28  27  96 CALM      30.09F FOG
VIROQUA        CLOUDY    28  28 100 CALM      30.05F VSB 1
BOSCOBEL       CLOUDY    33  29  85 NE3       30.08F FOG
PRAIRIE DU CHI CLOUDY    32  28  85 E6        30.06F FOG     WCI  27
PLATTEVILLE    CLOUDY    33  32  96 E8        30.05R WCI  26
$$

WIZ056-057-062-063-064-067-068-171700-
SOUTH CENTRAL WISCONSIN

CITY           SKY/WX    TMP DP  RH WIND       PRES   REMARKS
REEDSBURG      CLOUDY    29  28  98 NE5       30.07F WCI  24
BARABOO/DELLS  CLOUDY    29  27  92 NE8       30.07F WCI  21
LONE ROCK      CLOUDY    32  30  92 NE7       30.07F FOG     WCI  26
MINERAL POINT  CLOUDY    34  34 100 E7        30.04R FOG     WCI  28
MADISON        CLOUDY    33  30  88 E12       30.07F FOG     WCI  24
MIDDLETON      CLOUDY    33  31  91 E6        30.07F WCI  28
WATERTOWN      CLOUDY    32  32 100 E7        30.08S FOG     WCI  26
MONROE         CLOUDY    32  32 100 NE7       30.05R FOG     WCI  26
JANESVILLE     CLOUDY    36  34  93 E9        30.06R FOG     WCI  29
$$

WIZ051-052-058>065-066-070>072-171700-
SOUTHEAST WISCONSIN

CITY           SKY/WX    TMP DP  RH WIND       PRES   REMARKS
MILWAUKEE      CLOUDY    34  31  88 E10       30.09F FOG     WCI  26
WAUKESHA       CLOUDY    30  28  93 E9        30.09S FOG     WCI  22
MILWAUKEE/TIMM CLOUDY    32  27  80 E8        30.10F WCI  25
RACINE         CLOUDY    34  31  88 E10       30.10S FOG     WCI  26
BURLINGTON     CLOUDY    50  50 100 E7        30.07S FOG
KENOSHA        CLOUDY    35  31  85 E10       30.08R FOG     WCI  27
FOND DU LAC    CLOUDY    32  27  81 E9        30.10F WCI  24
SHEBOYGAN      CLOUDY    30  28  92 E8        30.11F WCI  22
WEST BEND      CLOUDY    30  30 100 E10       30.09F WCI  21
JUNEAU         CLOUDY    30  28  93 NE6       30.09S FOG     WCI  24
$$

LSZ147-162-171700-
LAKE SUPERIOR

STATION/POSITION TIME  TEMP    WIND        PRES    WAVE
                       AIR SEA DIR/SP/G            HT/PER
                 (UTC) (F)     (DEG/KT/KT) (MB)    (FT/S)
DEVILS ISLAND    1600   26     210/ 10/ 12 1020.6F
SAXON HARBOR     1540   26                 1019.3S
$$

LMZ867-665-643>646-171700-
LAKE MICHIGAN

STATION/POSITION TIME  TEMP    WIND        PRES    WAVE
                       AIR SEA DIR/SP/G            HT/PER
                 (UTC) (F)     (DEG/KT/KT) (MB)    (FT/S)
NORTHPORT PIER   1600   30     120/ 13/ 18 1021.0
KEWAUNEE LAKESHO 1554   31     110/  8/ 12 1019.6F
SHEBOYGAN LAKESH 1600   30      90/ 10/ 13 1020.4F
PORT WASHINGTON  1540   33      90/ 11/ 13 1020.7F
MILWAUKEE LAKESH 1600   33      60/ 12/ 13   N/A
KENOSHA   LAKESH 1600   34      90/ 12/ 13 1019.0
$$

TC  - TEMPERATURE IN CELSIUS
VSB - VISIBILITY IN STATUTE MILES
WCI - WIND CHILL INDEX
HX  - HEAT INDEX





USA.gov is the U.S. government's official web portal to all federal, state and local government web resources and services.